Flag for U.S.A. Weather past 2 weeks in Fort Wayne, Indiana, U.S.A.

Now
67 °F

Passing clouds.


Feels Like: 67 °F
Forecast: 34 / 63 °F
Wind: 6 mph from Southwest

Location: Fort Wayne International Airport

Current Time: Apr 1, 2015 at 5:16:53 PM

Latest Report: Apr 1, 2015 at 4:54 PM


Visibility: 10 mi

Pressure: 30.05 "Hg

Humidity: 30%

Dew point: 34 °F

Location of Fort WayneLocation

Historic Weather in Fort Wayne — Graph

°F

Fort Wayne temperature yesterday

Maximum temperature yesterday: 56 °F (at 11:54 AM)
Minimum temperature yesterday: 37 °F (at 10:54 PM)
Average temperature yesterday: 48 °F

Past Weeks' High & Low Weather Summary

 TemperatureHumidityPressure
High66 °F (Apr 1, 3:54 PM)97% (Mar 25, 5:54 AM)30.38 "Hg (Mar 25, 5:54 AM)
Low15 °F (Mar 24, 6:54 AM)29% (Mar 18, 3:54 PM)29.70 "Hg (Mar 31, 5:54 AM)
Average37 °F66%30.14 "Hg
* Reported Mar 17 3:54 PM — Apr 1 3:54 PM, Fort Wayne, Weather by CustomWeather, © 2015

Note: Actual official high and low records may vary slightly from our data, if they occured in-between our weather recording intervals... More about our weather records

Advertising

Fort Wayne weather history for previous 24 hours

 ConditionsComfort  
Time TempWeatherWind HumidityBarometerVisibility
3:54 PM
Wed, Apr 1
66 °FSunny.10 mph32%30.05 "Hg10 mi
2:54 PM65 °FSunny.7 mph33%30.07 "Hg10 mi
1:54 PM63 °FPassing clouds.12 mph35%30.10 "Hg10 mi
12:54 PM61 °FSunny.10 mph41%30.13 "Hg10 mi
11:54 AM58 °FSunny.10 mph46%30.14 "Hg10 mi
10:54 AM51 °FSunny.9 mph61%30.14 "Hg10 mi
9:54 AM44 °FSunny.10 mph76%30.13 "Hg10 mi
8:54 AM38 °FSunny.8 mph90%30.10 "Hg8 mi
7:54 AM32 °FClear.5 mph92%30.08 "Hg8 mi
6:54 AM32 °FClear.3 mph88%30.05 "Hg10 mi
5:54 AM33 °FClear.6 mph92%30.03 "Hg10 mi
4:54 AM34 °FClear.8 mph88%30.02 "Hg10 mi
3:54 AM33 °FClear.7 mph92%30.02 "Hg10 mi
2:54 AM34 °FPassing clouds.7 mph88%30.02 "Hg10 mi
1:54 AM34 °FClear.8 mph92%30.03 "Hg10 mi
12:54 AM34 °FPassing clouds.6 mph88%30.03 "Hg10 mi
11:54 PM
Tue, Mar 31
37 °FPassing clouds.9 mph82%30.01 "Hg10 mi
10:54 PM37 °FPassing clouds.No wind79%30.01 "Hg10 mi
9:54 PM43 °FPassing clouds.6 mph68%30.01 "Hg10 mi
8:54 PM43 °FPartly sunny.5 mph62%29.99 "Hg10 mi
7:54 PM48 °FPartly sunny.3 mph56%29.98 "Hg10 mi
6:54 PM50 °FBroken clouds.7 mph52%29.96 "Hg10 mi
5:54 PM50 °FPartly sunny.10 mph52%29.95 "Hg10 mi
Weather by CustomWeather, © 2015

See weather overviewHow to use our weather pages